Notices

What's New in latest Release from April 7th, 2021:

- Updated Glossary, including Speed of Maximum Gust, and Total Hourly Precipitation

- Updated national and regional climate services offices contacts and prices information

- Addition of station inventory lists for 1981-2010, 1971-2000, and 1961-1990 Normals.

If you haven't already, please take our survey and provide feedback about our website: https://eccc.sondage-survey.ca/f/LanguageSelection.aspx?s=442ca660-fcf1-47c0-95a9-59707d6fd709

Hourly Data Report for August 11, 2004

SHERBROOKE A
QUEBEC

45°26'00.000" N
71°41'00.000" W
241.40 m
7028124
71610
YSC

Download Data

Hourly Data (August 2004)
Hourly Data Report for August 11, 2004
TIME
LST
Temp Definition
°C
Dew Point Definition
°C
Rel Hum Definition
%
Precip. Amount Definition
mm

Wind Dir Definition
10's deg

Wind Spd Definition
km/h
Visibility Definition
km
Stn Press Definition
kPa
Hmdx Definition


Wind Chill Definition


Weather Definition


00:00 19.6 16.6 83   25 11 9.7 98.18      
01:00 17.2 15.9 92   16 6 5.6 98.20     Moderate Rain
02:00 17.2 16.1 93   16 4 6.4 98.18     Rain
03:00 16.7 15.7 94   11 6 5.6 98.12      
04:00 16.7 15.6 93   13 6 8.0 98.14      
05:00 15.2 14.5 96     0 4.0 98.17      
06:00 17.0 16.0 94     0 6.4 98.21      
07:00 19.0 17.3 90     0 12.9 98.21     Mainly Clear
08:00 20.9 18.4 86   19 11 16.1 98.25 27   Mostly Cloudy
09:00 21.8 18.4 81   21 7 19.3 98.27 28   Mostly Cloudy
10:00 23.2 18.5 75   20 20 16.1 98.26 30   Mostly Cloudy
11:00 24.5 18.3 68   19 17 19.3 98.24 31   Mostly Cloudy
12:00 25.4 18.2 64   22 13 16.1 98.20 32   Mostly Cloudy
13:00 26.1 17.3 58   22 15 19.3 98.17 32   Mostly Cloudy
14:00 26.1 17.6 60   22 17 19.3 98.15 32   Mainly Clear
15:00 26.5 16.5 54   20 20 16.1 98.16 31   Mainly Clear
16:00 25.1 17.5 63   20 6 24.1 98.18 31   Mainly Clear
17:00 25.1 17.6 63   21 7 15.0 98.20 31    
18:00 24.4 16.6 62   27 9 15.0 98.25 29    
19:00 19.9 17.3 85     0 15.0 98.24      
20:00 20.7 16.4 76   16 7 11.3 98.33 26    
21:00 20.0 16.2 79   16 6 12.9 98.32 25    
22:00 20.6 16.8 79   20 6 11.3 98.31 26    
23:00 20.2 17.1 82   27 19 8.0 98.40 26    

Notes on Data Quality.

Legend

  • E = Estimated
  • M = Missing
  • NA = Not Available*
  • [empty] = Indicates an unobserved value
Date modified: